STARLINK-34485

Last updated on Sat Jul 19 2025 00:02:08 GMT+0000 (Coordinated Universal Time)

1 64684U 25139W 25199.58335648 .00032484 00000+0 59012-3 0 9996 2 64684 53.1591 138.1136 0000971 100.5208 114.1398 15.49288106 4386
UTC large
Height (km)
Speed (km/s)
/
Latitude / Longitude
Inclination (degrees)
Orbital Period (minutes)
Azimuth
Elevation
Range (km)
Doppler Factor

Next 0 passes for location: London (51.5072 / 0.1276)

Sorry there are no passes over London.